Location: ???????
(55.3754°N, 39.3545°E)
Time: 17:17:43
(UTC+00:00)

Cosmos 2333 Rocket - Pass Details

Date: 14 April 2026
Orbit: 842 x 861 km, 70.8° (Epoch: 16 May)

Event Time Altitude Azimuth Distance (km) Brightness Sun altitude
Rises 22:43:23 0° 322° (NW) 3,411 5.8 -22.8°
Reaches altitude 10° 22:46:05 10° 332° (NNW) 2,474 5.1 -22.7°
Maximum altitude 22:51:12 33° 36° (NE) 1,385 3.9 -22.4°
Drops below altitude 10° 22:56:18 10° 100° (E) 2,471 4.8 -22.1°
Sets 22:59:00 0° 110° (ESE) 3,406 5.4 -21.9°
